When you browse on this site, cookies collect data to enhance your experience and personalize the content and advertising you see.
Visit our Privacy Policy to learn more. By continuing to use the site, you agree to this use of cookies and data.
  • In Portugal
  • List of Countries
  • For 7 days
  • Water Temperature
  • Weather Map
  • Weather Widgets
  • user-avatar
    Login

    Hourly Weather Bolshie Galashki

    Today, 29 May, Friday

    Time Temperature Precipitation Wind Pressure Humidity
    00:00 +10°C° 0 mm 1 mps 730 mmHg 89%
    01:00 +9°C° 0 mm 1 mps 730 mmHg 91%
    02:00 +9°C° 0 mm 1 mps 730 mmHg 91%
    03:00 +9°C° 0 mm 1 mps 730 mmHg 92%
    04:00 +9°C° 0 mm 1 mps 730 mmHg 89%
    05:00 +10°C° 0 mm 2 mps 730 mmHg 81%
    06:00 +13°C° 0 mm 2 mps 730 mmHg 73%
    07:00 +15°C° 0 mm 2 mps 730 mmHg 65%
    08:00 +16°C° 0 mm 3 mps 730 mmHg 58%
    09:00 +18°C° 0 mm 3 mps 731 mmHg 52%
    10:00 +19°C° 0 mm 4 mps 731 mmHg 45%
    11:00 +19°C° 0 mm 4 mps 730 mmHg 45%
    12:00 +20°C° 0 mm 4 mps 730 mmHg 44%
    13:00 +20°C° 0 mm 4 mps 730 mmHg 44%
    14:00 +19°C° 0 mm 3 mps 730 mmHg 46%
    15:00 +19°C° 0 mm 3 mps 730 mmHg 49%
    16:00 +19°C° 0 mm 2 mps 730 mmHg 51%
    17:00 +18°C° 0 mm 2 mps 730 mmHg 55%
    18:00 +18°C° 0 mm 2 mps 730 mmHg 59%
    19:00 +17°C° 0 mm 2 mps 730 mmHg 63%
    20:00 +16°C° 0 mm 1 mps 730 mmHg 70%
    21:00 +14°C° 0 mm 1 mps 730 mmHg 76%
    22:00 +12°C° 0 mm 1 mps 730 mmHg 82%
    23:00 +11°C° 0 mm 1 mps 729 mmHg 84%

    Tomorrow, 30 May, Saturday

    Time Temperature Precipitation Wind Pressure Humidity
    00:00 +11°C° 0 mm 1 mps 729 mmHg 85%
    01:00 +10°C° 0 mm 1 mps 729 mmHg 86%
    02:00 +10°C° 0 mm 1 mps 729 mmHg 87%
    03:00 +10°C° 0 mm 1 mps 729 mmHg 87%
    04:00 +10°C° 0 mm 1 mps 729 mmHg 87%
    05:00 +12°C° 0 mm 2 mps 729 mmHg 80%
    06:00 +14°C° 0 mm 2 mps 729 mmHg 73%
    07:00 +16°C° 0 mm 3 mps 729 mmHg 66%
    08:00 +17°C° 0 mm 3 mps 729 mmHg 61%
    09:00 +19°C° 0 mm 3 mps 729 mmHg 55%
    10:00 +20°C° 0 mm 4 mps 729 mmHg 50%
    11:00 +21°C° 0 mm 4 mps 729 mmHg 51%
    12:00 +21°C° 0 mm 4 mps 728 mmHg 52%
    13:00 +21°C° 0 mm 4 mps 728 mmHg 53%
    14:00 +20°C° 0 mm 3 mps 728 mmHg 58%
    15:00 +19°C° 0 mm 3 mps 728 mmHg 63%
    16:00 +18°C° 0 mm 2 mps 728 mmHg 68%
    17:00 +17°C° 0 mm 2 mps 727 mmHg 73%
    18:00 +16°C° 0 mm 2 mps 727 mmHg 78%
    19:00 +15°C° 0 mm 1 mps 727 mmHg 82%
    20:00 +14°C° 0.2 mm 1 mps 727 mmHg 87%
    21:00 +13°C° 0.2 mm 1 mps 727 mmHg 91%
    22:00 +12°C° 0.2 mm 1 mps 727 mmHg 95%
    23:00 +12°C° 0 mm 1 mps 726 mmHg 95%

    Day after tomorrow, 31 May, Sunday

    Time Temperature Precipitation Wind Pressure Humidity
    00:00 +11°C° 0 mm 1 mps 726 mmHg 95%
    01:00 +11°C° 0 mm 1 mps 726 mmHg 95%
    02:00 +11°C° 0 mm 1 mps 725 mmHg 95%
    03:00 +10°C° 0 mm 1 mps 725 mmHg 95%
    04:00 +10°C° 0 mm 1 mps 725 mmHg 95%
    05:00 +10°C° 0.1 mm 1 mps 724 mmHg 94%
    06:00 +10°C° 0.1 mm 2 mps 724 mmHg 93%
    07:00 +10°C° 0.1 mm 3 mps 724 mmHg 92%
    08:00 +9°C° 0.3 mm 3 mps 723 mmHg 92%
    09:00 +8°C° 0.3 mm 4 mps 723 mmHg 93%
    10:00 +8°C° 0.3 mm 5 mps 723 mmHg 93%
    11:00 +8°C° 0.1 mm 5 mps 723 mmHg 91%
    12:00 +7°C° 0.1 mm 5 mps 722 mmHg 89%
    13:00 +7°C° 0.1 mm 5 mps 722 mmHg 88%
    14:00 +7°C° 2.3 mm 5 mps 722 mmHg 90%
    15:00 +6°C° 2.3 mm 5 mps 722 mmHg 93%
    16:00 +6°C° 2.3 mm 5 mps 722 mmHg 96%
    17:00 +6°C° 2.3 mm 5 mps 721 mmHg 96%
    18:00 +6°C° 2.3 mm 5 mps 721 mmHg 96%
    19:00 +6°C° 2.3 mm 5 mps 720 mmHg 96%
    20:00 +6°C° 2.4 mm 5 mps 720 mmHg 97%
    21:00 +5°C° 2.4 mm 4 mps 720 mmHg 97%
    22:00 +5°C° 2.4 mm 4 mps 720 mmHg 97%
    23:00 +5°C° 2.2 mm 4 mps 720 mmHg 97%

    1 June, Monday

    Time Temperature Precipitation Wind Pressure Humidity
    00:00 +5°C° 2.3 mm 5 mps 720 mmHg 97%
    01:00 +5°C° 2.3 mm 5 mps 720 mmHg 97%
    02:00 +5°C° 0.8 mm 5 mps 720 mmHg 97%
    03:00 +5°C° 0.8 mm 5 mps 720 mmHg 97%
    04:00 +5°C° 0.8 mm 4 mps 720 mmHg 97%
    05:00 +5°C° 0.6 mm 4 mps 720 mmHg 96%
    06:00 +5°C° 0.6 mm 5 mps 720 mmHg 96%
    07:00 +5°C° 0.6 mm 5 mps 720 mmHg 96%
    08:00 +5°C° 0.2 mm 5 mps 720 mmHg 96%
    09:00 +5°C° 0.2 mm 4 mps 720 mmHg 96%
    10:00 +5°C° 0.2 mm 4 mps 720 mmHg 95%
    11:00 +5°C° 0.2 mm 4 mps 721 mmHg 96%
    12:00 +5°C° 0.2 mm 4 mps 721 mmHg 96%
    13:00 +5°C° 0.2 mm 3 mps 721 mmHg 96%
    14:00 +5°C° 0.5 mm 3 mps 721 mmHg 96%
    15:00 +7°C° 0.5 mm 3 mps 721 mmHg 97%
    16:00 +7°C° 0.5 mm 3 mps 721 mmHg 97%
    17:00 +7°C° 0.2 mm 3 mps 721 mmHg 97%
    18:00 +7°C° 0.2 mm 3 mps 721 mmHg 97%
    19:00 +7°C° 0.2 mm 3 mps 721 mmHg 98%
    20:00 +7°C° 0 mm 3 mps 721 mmHg 98%
    21:00 +7°C° 0 mm 3 mps 721 mmHg 98%
    22:00 +7°C° 0 mm 3 mps 721 mmHg 98%
    23:00 +7°C° 0.2 mm 3 mps 721 mmHg 98%

    2 June, Tuesday

    Time Temperature Precipitation Wind Pressure Humidity
    00:00 +7°C° 0.2 mm 3 mps 720 mmHg 98%
    01:00 +7°C° 0.2 mm 3 mps 720 mmHg 98%
    02:00 +7°C° 0.3 mm 2 mps 720 mmHg 98%
    03:00 +8°C° 0.3 mm 2 mps 720 mmHg 99%
    04:00 +9°C° 0.3 mm 1 mps 720 mmHg 99%
    05:00 +10°C° 0.1 mm 1 mps 720 mmHg 96%
    06:00 +10°C° 0.1 mm 2 mps 720 mmHg 94%
    07:00 +12°C° 0.1 mm 2 mps 720 mmHg 91%
    08:00 +13°C° 0.1 mm 2 mps 721 mmHg 82%
    09:00 +13°C° 0.1 mm 3 mps 721 mmHg 74%
    10:00 +14°C° 0.1 mm 4 mps 721 mmHg 65%
    11:00 +14°C° 0.1 mm 4 mps 721 mmHg 64%
    12:00 +13°C° 0.1 mm 4 mps 721 mmHg 63%
    13:00 +13°C° 0.1 mm 4 mps 721 mmHg 62%
    14:00 +13°C° 0.1 mm 4 mps 721 mmHg 65%
    15:00 +12°C° 0.1 mm 4 mps 721 mmHg 67%
    16:00 +12°C° 0.1 mm 3 mps 722 mmHg 69%
    17:00 +11°C° 0.1 mm 3 mps 722 mmHg 73%
    18:00 +12°C° 0.1 mm 2 mps 722 mmHg 77%
    19:00 +12°C° 0.1 mm 1 mps 722 mmHg 81%
    20:00 +11°C° 0.1 mm 1 mps 723 mmHg 86%
    21:00 +10°C° 0.1 mm 1 mps 723 mmHg 91%
    22:00 +8°C° 0.1 mm 1 mps 723 mmHg 96%
    23:00 +8°C° 0 mm 1 mps 723 mmHg 96%

    3 June, Wednesday

    Time Temperature Precipitation Wind Pressure Humidity
    00:00 +8°C° 0 mm 1 mps 723 mmHg 96%
    01:00 +7°C° 0 mm 2 mps 724 mmHg 96%
    02:00 +7°C° 0 mm 2 mps 724 mmHg 96%
    03:00 +7°C° 0 mm 2 mps 724 mmHg 95%
    04:00 +7°C° 0 mm 3 mps 724 mmHg 95%
    05:00 +7°C° 0 mm 3 mps 724 mmHg 93%
    06:00 +7°C° 0 mm 3 mps 724 mmHg 91%
    07:00 +7°C° 0 mm 3 mps 724 mmHg 89%
    08:00 +8°C° 0 mm 3 mps 725 mmHg 86%
    09:00 +9°C° 0 mm 3 mps 725 mmHg 82%
    10:00 +10°C° 0 mm 3 mps 725 mmHg 78%
    11:00 +11°C° 0.1 mm 4 mps 725 mmHg 76%
    12:00 +11°C° 0.1 mm 4 mps 725 mmHg 74%
    13:00 +12°C° 0.1 mm 4 mps 725 mmHg 71%
    14:00 +11°C° 0.1 mm 4 mps 725 mmHg 73%
    15:00 +11°C° 0.1 mm 3 mps 725 mmHg 74%
    16:00 +11°C° 0.1 mm 3 mps 725 mmHg 76%
    17:00 +11°C° 0 mm 3 mps 725 mmHg 76%
    18:00 +11°C° 0 mm 3 mps 725 mmHg 77%
    19:00 +12°C° 0 mm 2 mps 725 mmHg 77%
    20:00 +10°C° 0 mm 2 mps 725 mmHg 81%
    21:00 +9°C° 0 mm 2 mps 725 mmHg 85%
    22:00 +8°C° 0 mm 2 mps 725 mmHg 88%
    23:00 +8°C° 0 mm 2 mps 725 mmHg 90%
    Show more